星链-35542(STARLINK-35542)

导读 | 豆包AI

STARLINK-35542是美国于2025年10月19日发射的星链系列卫星,归属SpaceX星链项目。星链项目旨在搭建全球卫星互联网星座,为全球偏远地区、海洋等网络覆盖薄弱区域提供高速互联网接入服务,该卫星入轨后将和其他星链卫星协同组网,进一步完善星链星座的通信覆盖能力与服务容量。

Basic Information
目录编号:
66064
目录名称:
STARLINK-35542
国际标识:
2025-235G
轨道中心:
EARTH
卫星名称:
星链-35542
卫星全名:
星链-35542(STARLINK-35542)
卫星状态:
在轨 (已飞行192 天)
发射日期:
2025-10-19 UTC
国别 :
美国 (US)
星等 :
--
Orbit Information
数据来源 国际轨道数据 AOE轨道数据
星历时间 2026-04-29T06:43:23+0800
8小时前
查看轨道信息
2026-04-22T20:00:00+0800
6天前
查看轨道信息
半长轴 6853.322km 6853.225km
偏心率 0.0001078 0.0000628
轨道倾角 53.162° 53.160°
近地点辐角 93.707° 84.149°
升交点赤经 12.002° 41.949°
平近点角 266.405° 22.724°
近地点 474.446km 474.657km
远地点 475.924km 475.519km
周期 94.105分钟 94.103分钟
每日圈数 15.302102 15.302428
Detailed Information
固有亮度:
5
最大亮度:
2.5
卫星平台:
Starlink V1.0
覆盖范围:
全球
运营商:
太空探索技术公司
运营商所在国:
美国
制造商(研发单位):
太空探索技术公司
制造商所在国:
美国
使用方式:
暂无
Satellite Introduction
Starlink 计划是 SpaceX 推出的全球卫星互联网项目,通过发射低轨道卫星,为全球尤其是偏远地区提供高速、低延迟的互联网服务。自 2019 年起,Starlink 已部署数千颗卫星,旨在缩小全球数字鸿沟,推动互联网普及。该项目还为军事、航空等行业提供通信支持,带来广泛经济效益。
2D Orbit Map
3D Orbit Map
Orbit Altitude Analysis Chart
Orbit Inclination Analysis Chart
Orbit Comprehensive Analysis Chart
View Comprehensive Chart